Location: Saint John
(45.2733°N, 66.0633°W)
Time: 10:58:13
(UTC-04:00)

BlueWalker 3 - Pass Details

Date: 05 December 2022
Orbit: 499 x 517 km, 53.2° (Epoch: 01 February)

Event Time Altitude Azimuth Distance (km) Brightness Sun altitude
Rises 19:07:31 0° 303° (WNW) 2,626 6.3 -24.8°
Reaches altitude 10° 19:09:47 10° 308° (NW) 1,734 5.2 -25.2°
Enters shadow 19:11:57 29° 324° (NW) 954 3.5 -25.5°
